This is the latest recevied weather packets stored in our database for station/object SQ5AAG-2. If no packets are shown the sender has not sent any weather packets the latest 10 day(s).
| Time | Temp. | Humidity | Pressure | Rain* | Wind** | Luminosity | Snow |
|---|---|---|---|---|---|---|---|
| 1777917943 | 23.33° C | 35% | 995.9 hPa | 0 mm | - | - | - |
| 1777917642 | 23.33° C | 34% | 995.9 hPa | 0 mm | - | - | - |
| 1777917342 | 23.89° C | 34% | 995.8 hPa | 0 mm | - | - | - |
| 1777917042 | 23.89° C | 33% | 996.1 hPa | 0 mm | - | - | - |
| 1777916742 | 23.89° C | 33% | 996 hPa | 0 mm | - | - | - |
| 1777916441 | 24.44° C | 32% | 995.9 hPa | 0 mm | - | - | - |
| 1777916141 | 25° C | 32% | 995.9 hPa | 0 mm | - | - | - |
| 1777915841 | 25.56° C | 31% | 996 hPa | 0 mm | - | - | - |
| 1777915540 | 26.11° C | 30% | 995.9 hPa | 0 mm | - | - | - |
| 1777915240 | 26.67° C | 29% | 995.9 hPa | 0 mm | - | - | - |
| 1777914940 | 28.33° C | 29% | 995.9 hPa | 0 mm | - | - | - |
| 1777914640 | 28.33° C | 27% | 995.9 hPa | 0 mm | - | - | - |
| 1777914339 | 28.89° C | 27% | 995.8 hPa | 0 mm | - | - | - |
| 1777914039 | 30° C | 26% | 995.8 hPa | 0 mm | - | - | - |
| 1777913739 | 30° C | 26% | 995.8 hPa | 0 mm | - | - | - |
| 1777913439 | 30° C | 26% | 995.8 hPa | 0 mm | - | - | - |
| 1777913138 | 30.56° C | 25% | 995.7 hPa | 0 mm | - | - | - |
| 1777912838 | 30.56° C | 25% | 995.7 hPa | 0 mm | - | - | - |
| 1777912538 | 30.56° C | 25% | 995.7 hPa | 0 mm | - | - | - |
| 1777912237 | 31.67° C | 25% | 995.7 hPa | 0 mm | - | - | - |
| 1777911937 | 32.22° C | 25% | 995.6 hPa | 0 mm | - | - | - |
| 1777911637 | 32.22° C | 24% | 995.7 hPa | 0 mm | - | - | - |
| 1777911344 | -12.78° C | - | - | - | - | - | - |
| 1777911336 | 32.22° C | 24% | 995.8 hPa | 0 mm | - | - | - |
| 1777911036 | 32.22° C | 24% | 995.9 hPa | 0 mm | - | - | - |
* Rain latest hour (hover to see other rain measurements)
** Current wind speed in m/s (hover to see current wind gust speed)